Find Starlink 31722

NORAD ID: 59549 Int'l Des: 2024-074 Owner: SPXS Country: US Constellation: starlink operational
LEOCIRCULAR

Current View

Loading 3D Globe...

About Starlink 31722

Starlink 31722 (NORAD 59549) is a starlink constellation satellite (v2 mini) launched Apr 18, 2024 by SPXS of US. It operates in LEO, CIRCULAR orbit with a mass of 730.00 kg.

About Starlink 31722

Description loading...

Upcoming Passes

Passes for default location (London). Set your location on the main map for personalized predictions.

Altitude History

Loading altitude history...

Two-Line Element Set

1 59549U 24074R 26168.36823507 .00001317 00000-0 57384-4 0 9999
2 59549 43.0014 140.1843 0000899 265.4447 94.6302 15.27581545121264
Epoch: Jun 17, 2026 • Age: 24 hours

Current Status

Altitude 482.2 km
Velocity 7.63 km/s
Sub-Earth Point 10.71°N, 100.17°W
Launch Date Apr 18, 2024
Age 2.1 years
Type internet

Technical Details

Classification Payload
Mass 730.00 kg
Dry Mass 700.00 kg
Total Mass 730.00 kg
Length 0.30 m
Diameter 4.10 m
Span 29.00 m
Shape Box + pan
Manufacturer SPXS
Bus Type Starlink V2M
Phase Status In Orbit
Owner/State SPXS/US

Most Searched